Temperature
14 14 15 14 15 15 15 15 15 15 15 15 15 15 15 15 15 15 15 15 15 15 15 15 15 15 15 15 15 15 15 15 15 15 15 15 15 15 15 15 14 14 15
14 14 15 14 15 15 15 15 15 15 15 15 15 15 15 15 15 15 15 15 15 15 15 15 15 15 15 15 15 15 15 15 15 15 15 15 15 15 15 15 14 14 15
14 14 14 14 14 15 15 15 15 15 15 15 15 15 15 15 15 15 15 15 14 15 15 15 15 15 15 15 15 15 15 15 15 15 14 14 14 14 14 14 14 14 14
14 14 14 14 14 14 15 15 15 15 15 15 15 15 15 15 15 14 14 14 14 14 14 14 14 15 15 15 15 15 15 15 15 14 14 14 14 14 14 14 14 14 14
14 14 14 14 14 14 14 14 14 14 14 14 15 15 15 15 15 14 14 14 14 14 14 14 14 14 15 15 15 15 14 14 14 14 14 14 14 14 14 14 14 14 14
13 13 14 14 14 14 14 14 14 14 14 14 14 14 14 14 14 14 14 14 14 14 14 14 14 14 14 14 14 14 14 14 14 13 13 13 13 13 13 13 13 13 14
13 13 13 14 14 14 14 14 14 14 14 14 14 14 14 14 14 14 14 14 14 14 14 14 14 14 14 14 14 14 14 14 13 13 13 13 13 13 13 13 13 13 13
13 13 13 14 13 14 14 14 14 14 14 14 14 14 14 14 14 14 14 14 14 14 14 14 14 14 14 14 14 14 14 14 13 13 13 13 13 13 13 13 13 13 13
13 13 13 13 13 13 13 13 14 14 14 14 14 14 14 14 14 14 13 13 13 13 13 13 13 13 14 13 14 14 14 14 13 13 13 13 13 13 13 13 12 12 13
13 13 13 13 13 13 13 13 13 13 13 13 14 13 13 13 13 13 13 13 13 13 13 13 13 13 13 13 13 13 13 13 13 13 12 13 13 13 13 13 12 12 12
12 13 13 13 13 13 13 13 13 13 13 13 13 13 13 13 13 13 12 12 12 13 13 13 13 13 13 13 13 13 13 13 12 12 12 12 13 13 12 12 12 12 12
12 12 12 12 12 12 12 13 13 13 13 13 13 13 12 12 12 12 12 12 12 12 12 12 12 12 12 12 12 13 12 12 12 12 12 12 12 12 12 12 12 12 12
12 12 12 12 12 12 12 12 12 12 12 12 12 12 12 12 12 12 12 12 12 12 12 12 12 12 12 12 12 12 12 12 12 12 12 12 12 12 12 12 12 12 12
11 12 12 12 12 12 12 12 12 12 12 12 12 12 12 12 12 12 11 11 11 11 11 11 11 11 11 11 11 11 12 12 12 12 12 12 12 12 12 12 12 11 11
11 11 11 12 12 12 12 12 12 12 12 12 12 12 11 11 11 11 11 11 11 11 11 11 11 11 11 11 11 11 11 11 11 11 11 12 12 12 11 11 11 11 11
11 11 11 11 11 11 11 12 12 11 11 11 11 11 11 11 11 11 11 11 11 11 11 11 11 11 11 11 11 11 11 11 11 11 11 11 11 11 11 11 11 11 11
11 11 11 11 11 11 11 11 11 11 11 11 11 11 11 10 10 10 10 10 10 10 10 10 10 10 10 10 10 11 10 10 10 10 10 10 11 11 11 11 11 10 10
10 11 11 11 11 11 11 11 11 11 11 11 10 10 10 10 10 10 10 10 10 10 10 10 10 10 10 10 10 10 10 10 10 10 10 10 10 10 10 10 10 10 10
10 10 10 10 10 10 10 10 10 10 10 10 10 10 10 10 10 9 9 9 9 9 9 9 9 9 9 9 9 9 9 9 9 9 9 9 9 9 9 9 9 9 9
10 10 10 10 10 10 10 10 10 10 10 10 10 9 9 9 9 9 9 9 9 9 9 9 9 9 9 9 9 9 9 9 9 9 8 8 8 8 8 8 8 9 9
9 9 9 10 10 10 9 9 9 9 9 9 9 9 9 9 9 9 9 9 9 8 8 8 8 8 8 8 8 8 8 8 8 8 8 8 8 8 8 8 8 8 8
9 9 9 9 9 9 9 9 9 9 9 9 9 9 9 9 9 8 8 8 8 8 8 8 8 8 7 7 7 6 6 7 7 7 7 7 7 7 7 7 7 7 7
8 9 9 9 9 9 9 9 8 8 8 8 8 8 8 8 8 8 8 8 7 7 7 7 7 7 7 6 6 6 6 6 6 6 6 6 6 6 6 6 6 6 7
8 8 8 8 9 8 8 8 8 8 8 8 8 8 8 8 8 8 7 7 7 7 7 7 7 6 6 6 5 5 5 5 5 5 5 6 6 6 6 6 6 6 6
8 8 8 8 8 8 8 8 8 8 7 7 7 7 7 7 7 7 7 7 7 7 6 6 6 6 6 5 5 5 4 4 4 4 5 5 5 5 5 5 5 5 5
7 7 7 8 8 8 8 8 7 7 7 7 7 7 7 7 7 7 6 6 6 6 6 6 6 5 5 5 4 4 4 4 4 4 4 4 4 4 5 5 5 5 5
Wind_Speed
4 4 6 7 8 10 11 11 11 12 12 12 12 13 13 13 14 14 14 14 14 14 14 14 14 14 14 14 14 14 14 14 15 14 14 14 14 14 14 13 11 13 14
5 6 8 9 9 10 11 11 11 12 12 12 12 13 13 13 13 13 13 13 14 14 14 14 13 14 14 13 13 13 13 13 13 13 12 13 13 13 13 13 13 12 13
7 7 9 9 9 10 11 11 12 12 12 12 12 13 13 13 13 13 13 13 13 13 13 13 13 13 13 13 13 12 12 12 11 10 8 10 11 12 12 12 12 12 11
7 7 8 10 9 10 11 11 11 12 12 12 12 12 12 13 12 12 12 12 12 13 12 13 13 13 13 13 13 12 11 11 9 7 8 9 9 10 10 10 10 10 10
7 7 8 10 10 10 11 11 11 12 12 12 11 11 12 12 12 12 12 12 12 12 12 12 12 12 12 12 12 11 10 9 7 6 8 8 8 9 8 9 9 9 9
7 7 9 9 10 10 11 11 11 12 12 12 11 11 11 11 12 12 12 11 11 11 11 11 11 11 10 10 10 10 9 7 4 7 7 7 7 8 8 7 7 7 8
6 7 9 8 10 10 10 11 11 11 12 12 11 11 11 11 11 11 11 11 11 11 11 10 10 9 9 9 8 8 8 6 5 6 6 6 7 7 7 6 6 5 6
6 7 8 8 9 10 10 10 11 11 11 11 11 11 11 11 10 10 10 10 10 10 9 9 9 8 8 8 7 7 6 4 4 5 5 5 7 6 5 5 4 4 4
6 6 6 7 9 9 9 10 10 11 11 11 11 10 10 10 10 10 9 9 9 9 9 8 8 8 7 7 7 6 5 4 3 4 4 4 5 4 4 4 4 4 4
5 5 5 6 7 8 8 9 10 10 10 10 10 10 10 10 10 9 9 8 8 8 7 7 7 7 7 7 7 5 3 1 3 3 3 4 4 3 3 4 4 4 4
5 4 4 5 5 7 7 8 9 9 9 9 9 9 8 7 7 6 7 8 7 7 6 6 6 6 5 6 6 4 2 2 2 3 3 4 3 3 3 3 3 3 4
5 4 3 5 5 6 6 7 6 6 6 6 6 6 5 5 5 5 7 7 6 6 5 5 4 4 3 3 3 2 2 2 2 2 3 4 4 3 3 3 3 3 3
5 4 3 4 5 5 5 5 4 4 4 4 5 5 5 5 4 4 3 3 4 4 3 3 3 3 2 3 2 2 3 2 2 3 4 5 5 4 4 4 3 3 3
5 4 3 4 4 4 5 5 4 4 4 4 4 4 4 3 3 3 2 2 2 2 2 2 1 2 2 2 2 2 2 2 2 3 4 5 6 5 5 5 5 4 4
5 4 4 4 4 4 4 4 4 4 4 4 4 4 3 3 2 2 2 2 2 1 1 1 1 1 1 1 1 2 2 2 2 2 3 5 5 5 5 5 5 5 5
5 5 4 4 4 4 3 4 4 4 4 4 4 4 3 3 2 2 1 1 1 1 1 1 1 1 1 1 2 2 2 2 2 2 2 3 4 5 5 5 5 6 6
5 5 5 5 4 4 4 3 3 4 4 4 3 3 3 3 2 2 1 1 1 1 0 1 1 1 1 2 2 2 2 2 2 2 2 2 3 4 5 6 6 6 6
6 5 6 5 5 5 4 3 3 3 4 3 3 3 3 3 2 2 1 0 1 0 0 0 0 1 1 2 2 2 2 2 3 3 2 2 3 3 4 6 7 7 7
6 6 6 6 5 5 4 4 3 3 3 3 3 2 2 2 2 2 1 1 0 0 1 1 1 1 2 2 3 3 2 2 2 2 2 2 3 3 4 5 6 7 8
5 6 6 6 6 5 5 4 3 3 2 2 2 2 2 2 2 2 1 1 1 0 0 0 1 1 1 2 3 3 3 3 2 2 3 2 3 4 4 5 5 5 6
5 6 6 7 6 5 4 4 3 3 2 1 2 2 2 2 2 2 1 1 1 1 0 1 1 1 1 2 2 3 3 3 3 2 3 3 2 3 4 5 5 5 5
6 5 6 6 7 6 5 4 3 3 2 1 1 2 1 1 2 2 1 1 1 1 1 1 1 1 1 1 2 3 3 3 2 3 3 3 3 3 3 4 5 5 6
7 7 6 7 7 6 6 4 3 2 2 2 1 1 1 1 1 2 1 1 1 2 2 2 2 2 1 1 1 2 2 3 4 3 3 3 3 4 4 4 5 5 6
7 6 6 7 7 7 6 6 6 4 4 3 2 2 2 2 2 1 1 2 1 1 2 2 2 2 3 2 2 2 3 3 3 3 3 3 5 5 5 4 5 5 5
6 6 6 6 7 7 7 7 7 5 3 2 2 2 2 1 2 1 1 2 2 2 2 2 3 3 3 3 3 2 3 3 4 5 5 5 5 4 4 5 5 5 5
5 5 5 6 5 6 6 7 7 7 5 4 3 3 2 1 1 1 2 2 2 2 2 3 3 3 3 3 3 3 3 3 3 4 6 7 7 5 5 4 4 4 5
Wind_Direction
150 142 133 126 117 111 105 101 100 97 97 97 97 96 93 91 90 86 83 82 81 80 80 80 79 79 79 78 78 77 75 75 74 74 74 73 72 71 67 62 64 70 64
146 145 136 128 122 116 110 106 105 101 97 97 97 96 95 91 88 88 85 81 80 81 80 80 80 78 78 77 77 78 77 77 75 74 76 79 75 71 67 62 58 65 63
137 139 139 128 125 121 114 109 108 105 100 97 96 94 93 91 89 87 86 83 81 80 81 81 80 79 78 77 77 79 78 77 76 74 78 79 78 71 68 66 66 66 63
133 135 135 126 124 122 118 113 110 108 105 100 96 93 91 90 90 89 86 83 81 80 80 80 80 79 79 78 76 77 78 77 73 69 72 73 76 73 69 68 66 65 63
129 130 126 126 123 123 120 115 112 109 106 102 98 95 93 92 89 87 84 82 81 81 80 79 79 80 79 77 75 74 74 74 72 71 70 70 72 71 67 66 64 64 63
131 128 125 128 128 124 121 117 114 112 108 105 101 98 95 94 92 89 86 83 81 80 80 79 78 78 78 77 74 71 69 63 73 73 70 68 69 68 62 65 64 63 62
128 125 128 128 129 126 123 119 115 115 110 106 101 99 98 95 93 91 89 86 83 80 79 78 77 76 74 74 73 70 66 53 56 69 68 67 65 58 54 58 60 60 59
128 125 126 122 127 126 124 119 115 117 114 109 104 100 96 92 92 91 89 87 84 80 77 75 72 71 69 69 68 66 60 42 60 64 62 66 63 51 44 44 51 53 51
123 125 125 136 135 127 120 116 114 115 113 109 105 101 97 93 89 85 86 85 83 79 76 72 71 68 64 63 64 63 55 32 45 62 58 58 57 45 38 35 38 44 44
120 124 128 137 143 141 133 118 115 112 112 110 106 103 100 96 92 86 81 76 78 78 75 72 70 69 66 64 60 57 49 23 49 55 55 56 45 32 28 25 28 31 32
130 129 130 134 138 141 139 130 124 117 113 114 110 107 110 109 102 95 81 74 71 71 71 70 68 67 68 74 63 51 44 33 32 34 44 49 25 11 13 14 20 20 24
156 149 143 143 141 143 138 136 135 132 128 124 121 120 117 110 101 94 88 79 74 70 72 70 73 78 65 66 66 51 40 16 13 19 36 29 1 353 359 5 8 6 10
165 154 152 149 145 144 139 136 132 128 129 126 123 122 117 109 105 99 100 93 82 75 68 69 78 60 46 46 39 35 23 14 16 16 29 23 0 353 352 351 357 3 3
170 167 156 146 150 146 144 138 136 131 129 125 125 126 121 108 103 97 90 83 77 65 48 38 25 36 35 42 32 20 13 8 6 9 23 19 4 360 360 0 355 347 345
177 176 165 152 149 147 145 143 137 132 130 129 127 131 124 118 113 106 90 78 61 48 37 14 360 5 12 21 8 355 350 347 349 350 11 21 6 2 359 353 350 344 334
186 183 168 155 151 145 140 140 140 141 135 134 130 125 125 121 118 115 107 72 39 26 17 1 358 346 347 356 346 338 330 326 332 337 338 1 13 3 354 346 340 336 329
192 186 173 162 154 148 144 140 138 141 140 135 130 131 130 123 123 119 109 88 29 14 4 9 22 359 350 341 326 332 330 323 317 321 329 333 348 8 5 352 344 338 328
192 185 174 161 159 154 148 141 130 137 139 134 133 137 138 135 132 119 108 79 15 56 23 12 5 342 319 317 315 318 314 317 310 315 326 335 341 344 354 356 348 338 329
194 184 174 165 163 159 149 140 133 123 126 133 136 133 141 148 156 142 126 98 77 53 14 345 333 313 304 313 310 305 303 298 303 308 317 331 336 332 326 334 337 338 333
200 188 179 172 166 161 155 147 135 126 121 127 123 134 154 162 169 155 139 127 102 96 49 319 326 322 303 308 302 297 291 287 292 298 299 303 318 321 320 321 319 327 335
199 195 187 182 172 167 166 169 166 170 167 145 131 136 171 175 169 162 154 155 168 199 221 259 284 297 314 317 299 295 280 268 277 291 292 293 309 319 324 325 323 323 327
201 199 195 190 184 179 178 176 176 172 171 162 141 148 164 180 180 181 184 184 201 205 213 250 265 276 300 315 306 300 287 253 259 274 283 286 297 312 322 323 324 326 326
207 207 204 196 189 186 180 163 149 149 154 179 185 180 170 165 177 183 193 204 212 212 217 224 235 249 265 276 296 292 286 278 303 260 272 276 292 301 310 318 320 320 322
211 209 208 201 191 188 183 180 181 190 199 208 207 206 188 192 190 188 202 212 221 228 228 230 231 243 241 246 264 272 282 292 280 287 268 276 293 294 299 308 311 312 316
208 204 205 201 194 188 188 189 188 195 202 189 187 197 199 196 201 197 208 224 225 232 234 241 244 243 244 249 256 270 271 274 271 272 283 292 292 289 296 299 298 302 311
202 196 196 192 191 187 186 189 192 190 189 183 187 192 210 216 222 219 217 222 238 246 240 243 245 244 248 251 257 260 268 269 278 272 278 288 292 295 297 294 297 305 314
Height
1537 1538 1539 1540 1541 1542 1542 1542 1543 1543 1543 1543 1544 1544 1544 1544 1544 1544 1543 1543 1543 1543 1542 1542 1542 1542 1542 1541 1541 1541 1540 1540 1540 1540 1539 1539 1539 1539 1538 1538 1538 1538 1537
1537 1538 1539 1541 1542 1543 1543 1543 1544 1544 1544 1545 1545 1545 1545 1545 1545 1545 1545 1545 1544 1544 1544 1543 1543 1543 1543 1543 1542 1542 1542 1542 1541 1541 1541 1541 1541 1540 1540 1540 1539 1539 1539
1537 1538 1540 1541 1543 1543 1544 1544 1545 1545 1546 1546 1546 1546 1546 1546 1547 1546 1546 1546 1546 1545 1545 1545 1545 1544 1544 1544 1544 1544 1543 1543 1543 1543 1543 1543 1542 1542 1542 1541 1541 1540 1540
1537 1539 1540 1542 1543 1544 1545 1545 1546 1546 1547 1547 1547 1547 1548 1548 1548 1548 1548 1547 1547 1547 1547 1546 1546 1546 1545 1545 1545 1545 1545 1544 1544 1544 1545 1544 1544 1543 1543 1542 1542 1542 1541
1538 1540 1541 1542 1544 1545 1546 1546 1547 1547 1547 1548 1548 1548 1548 1549 1549 1549 1549 1549 1548 1548 1548 1548 1547 1547 1547 1546 1546 1546 1546 1546 1546 1546 1546 1545 1545 1545 1544 1543 1543 1543 1542
1538 1540 1541 1543 1544 1545 1546 1547 1547 1548 1548 1548 1549 1549 1549 1549 1549 1550 1550 1550 1549 1549 1549 1549 1549 1548 1548 1548 1547 1547 1547 1547 1547 1547 1547 1547 1546 1546 1545 1545 1544 1544 1543
1539 1540 1542 1543 1545 1546 1546 1547 1548 1548 1549 1549 1549 1549 1550 1550 1550 1550 1550 1550 1550 1550 1550 1550 1550 1549 1549 1549 1548 1548 1548 1548 1548 1548 1548 1548 1547 1547 1546 1546 1545 1544 1544
1539 1540 1541 1543 1545 1546 1547 1548 1548 1549 1549 1549 1550 1550 1550 1550 1551 1551 1551 1551 1551 1551 1550 1550 1550 1550 1550 1549 1549 1549 1549 1548 1549 1548 1548 1548 1547 1547 1547 1546 1545 1545 1544
1539 1540 1542 1543 1544 1546 1547 1548 1548 1549 1549 1549 1550 1550 1551 1551 1551 1551 1551 1551 1551 1551 1551 1550 1550 1550 1550 1550 1550 1549 1549 1549 1549 1549 1549 1548 1548 1547 1547 1546 1546 1545 1544
1538 1540 1541 1543 1544 1545 1546 1547 1548 1549 1549 1550 1550 1551 1551 1551 1551 1551 1551 1551 1551 1551 1551 1551 1550 1550 1550 1550 1550 1549 1549 1549 1550 1549 1549 1548 1548 1547 1547 1546 1546 1545 1544
1537 1539 1540 1542 1543 1544 1546 1547 1548 1549 1549 1550 1550 1550 1551 1551 1551 1551 1551 1551 1551 1551 1551 1551 1550 1550 1550 1550 1550 1549 1549 1549 1549 1549 1548 1548 1547 1547 1546 1546 1545 1545 1544
1536 1538 1539 1541 1542 1543 1545 1546 1547 1548 1548 1549 1549 1550 1550 1550 1551 1551 1551 1551 1551 1551 1550 1550 1550 1550 1550 1549 1549 1549 1549 1549 1548 1548 1547 1547 1547 1546 1546 1545 1544 1544 1543
1536 1537 1538 1540 1541 1542 1543 1545 1546 1547 1548 1548 1549 1549 1549 1550 1550 1550 1550 1550 1550 1550 1550 1550 1549 1549 1549 1548 1548 1548 1548 1548 1547 1547 1546 1546 1546 1545 1544 1544 1544 1543 1542
1534 1536 1537 1538 1540 1541 1542 1543 1545 1545 1546 1547 1547 1548 1548 1549 1549 1549 1549 1549 1549 1549 1549 1549 1548 1548 1548 1547 1547 1547 1547 1546 1546 1545 1545 1544 1544 1544 1543 1542 1542 1541 1541
1533 1534 1536 1537 1538 1539 1541 1542 1543 1544 1545 1546 1547 1547 1547 1547 1548 1548 1548 1548 1548 1548 1548 1548 1547 1547 1547 1546 1546 1546 1545 1545 1544 1544 1543 1543 1542 1542 1541 1541 1540 1539 1539
1531 1533 1534 1535 1537 1538 1539 1540 1541 1543 1544 1545 1545 1546 1546 1546 1546 1546 1547 1547 1547 1547 1546 1546 1546 1546 1545 1545 1544 1544 1543 1543 1542 1542 1541 1541 1540 1540 1539 1538 1538 1537 1536
1529 1531 1532 1533 1535 1536 1537 1539 1540 1541 1542 1543 1544 1544 1545 1545 1545 1545 1545 1545 1545 1545 1545 1545 1545 1544 1543 1543 1542 1542 1541 1541 1540 1540 1539 1538 1538 1537 1536 1536 1535 1534 1534
1527 1529 1530 1531 1533 1534 1535 1537 1538 1539 1540 1541 1542 1542 1543 1543 1543 1543 1543 1544 1543 1543 1543 1543 1543 1542 1542 1541 1540 1540 1539 1539 1538 1538 1537 1536 1535 1535 1534 1533 1532 1531 1531
1525 1526 1528 1529 1531 1532 1533 1534 1536 1537 1538 1539 1540 1540 1541 1541 1541 1542 1542 1542 1542 1541 1541 1541 1541 1541 1540 1539 1538 1538 1537 1536 1536 1535 1535 1534 1533 1532 1531 1530 1529 1528 1528
1522 1524 1525 1527 1528 1530 1531 1532 1533 1534 1535 1536 1537 1538 1539 1539 1539 1539 1540 1540 1540 1540 1539 1539 1539 1539 1538 1537 1536 1535 1535 1534 1533 1533 1532 1531 1530 1529 1528 1527 1526 1525 1524
1519 1521 1522 1524 1526 1527 1528 1529 1530 1531 1532 1533 1534 1535 1536 1537 1537 1537 1537 1537 1537 1537 1537 1537 1537 1536 1536 1535 1534 1533 1532 1531 1531 1530 1529 1528 1527 1526 1526 1525 1523 1522 1521
1516 1517 1519 1521 1522 1524 1526 1527 1528 1529 1530 1531 1531 1532 1533 1534 1534 1535 1535 1535 1535 1535 1535 1535 1534 1534 1534 1533 1533 1532 1531 1531 1528 1527 1526 1525 1525 1524 1523 1522 1520 1519 1518
1512 1514 1515 1517 1519 1521 1523 1525 1526 1527 1527 1528 1528 1529 1530 1531 1531 1532 1532 1532 1532 1532 1532 1532 1532 1532 1531 1531 1531 1532 1531 1529 1527 1525 1524 1523 1522 1521 1520 1519 1517 1516 1514
1508 1510 1512 1514 1515 1517 1519 1521 1522 1523 1524 1525 1526 1526 1527 1528 1528 1528 1529 1529 1529 1529 1529 1529 1529 1529 1529 1529 1528 1528 1529 1528 1527 1524 1522 1521 1520 1518 1517 1515 1514 1512 1511
1505 1506 1508 1510 1512 1514 1516 1517 1519 1520 1521 1522 1523 1523 1523 1524 1525 1525 1525 1525 1526 1526 1526 1526 1526 1526 1526 1526 1525 1525 1525 1525 1524 1523 1520 1518 1516 1515 1514 1512 1511 1509 1507
1501 1503 1504 1506 1508 1509 1511 1513 1515 1517 1518 1519 1520 1520 1521 1521 1521 1522 1522 1522 1522 1522 1522 1523 1523 1523 1522 1522 1522 1522 1522 1522 1521 1520 1518 1515 1513 1511 1510 1508 1507 1506 1503